LZB604 LBSF-LBBG

Flight info

Callsign LZB604
Flight time 0h 36m
Altitude 29000
Route GAPVO3T/27 GAPVO T228 RUEXX
Aircraft A20N/M-SDE2E3FGHIRWXY/LB1

Departure

Time 2026-05-06 19:25
Airport Sofia Airport (LBSF)

Arrival

Time 2026-05-06 20:02
Airport Burgas Airport (LBBG)
Time Latitude Longitude Altitude Speed Heading
2026-05-06 19:04 42.69132 23.41430 1758 ft 0 kts 252°
2026-05-06 19:13 42.69133 23.41434 1756 ft 3 kts 252°
2026-05-06 19:13 42.69141 23.41468 1756 ft 3 kts 252°
2026-05-06 19:14 42.69146 23.41502 1755 ft 3 kts 277°
2026-05-06 19:14 42.69137 23.41525 1754 ft 3 kts 319°
2026-05-06 19:14 42.69129 23.41531 1754 ft 0 kts 338°
2026-05-06 19:19 42.69130 23.41531 1754 ft 3 kts 340°
2026-05-06 19:20 42.69236 23.41521 1755 ft 18 kts 353°
2026-05-06 19:20 42.69360 23.41520 1756 ft 17 kts
2026-05-06 19:20 42.69465 23.41477 1756 ft 17 kts 294°
2026-05-06 19:20 42.69488 23.41186 1759 ft 33 kts 274°
2026-05-06 19:21 42.69504 23.40880 1759 ft 31 kts 274°
2026-05-06 19:21 42.69524 23.40599 1760 ft 28 kts 274°
2026-05-06 19:21 42.69539 23.40338 1758 ft 27 kts 274°
2026-05-06 19:21 42.69554 23.40086 1758 ft 26 kts 275°
2026-05-06 19:22 42.69575 23.39756 1757 ft 29 kts 276°
2026-05-06 19:22 42.69587 23.39615 1756 ft 4 kts 291°
2026-05-06 19:22 42.69624 23.39594 1756 ft 6 kts 359°
2026-05-06 19:22 42.69642 23.39594 1756 ft 0 kts
2026-05-06 19:23 42.69643 23.39594 1756 ft 0 kts
2026-05-06 19:24 42.69654 23.39595 1756 ft 6 kts
2026-05-06 19:24 42.69758 23.39645 1754 ft 18 kts 64°
2026-05-06 19:24 42.69750 23.39898 1754 ft 48 kts 96°
2026-05-06 19:24 42.69709 23.40638 1758 ft 113 kts 95°
2026-05-06 19:25 42.69631 23.42000 1843 ft 166 kts 94°
2026-05-06 19:25 42.69520 23.43670 2315 ft 188 kts 95°
2026-05-06 19:25 42.69392 23.45516 2870 ft 209 kts 96°
2026-05-06 19:25 42.69254 23.47669 3007 ft 243 kts 95°
2026-05-06 19:26 42.69107 23.50034 3180 ft 257 kts 95°
2026-05-06 19:26 42.68958 23.52469 3351 ft 260 kts 95°
2026-05-06 19:26 42.68806 23.54951 3527 ft 261 kts 95°
2026-05-06 19:26 42.68655 23.57402 3701 ft 262 kts 96°
2026-05-06 19:27 42.68513 23.59897 3876 ft 264 kts 93°
2026-05-06 19:27 42.68474 23.62411 4192 ft 272 kts 91°
2026-05-06 19:27 42.68471 23.64988 5115 ft 275 kts 91°
2026-05-06 19:27 42.68469 23.67572 6064 ft 277 kts 91°
2026-05-06 19:28 42.68462 23.70227 6930 ft 282 kts 91°
2026-05-06 19:28 42.68451 23.72899 7795 ft 286 kts 91°
2026-05-06 19:28 42.68437 23.75597 8647 ft 290 kts 91°
2026-05-06 19:28 42.68422 23.78324 9469 ft 294 kts 90°
2026-05-06 19:29 42.68404 23.81102 10275 ft 297 kts 90°
2026-05-06 19:29 42.68386 23.83949 10850 ft 309 kts 90°
2026-05-06 19:29 42.68367 23.86947 11242 ft 327 kts 90°
2026-05-06 19:29 42.68344 23.90160 11638 ft 343 kts 90°
2026-05-06 19:30 42.68321 23.93429 12292 ft 350 kts 90°
2026-05-06 19:30 42.68296 23.96765 13059 ft 353 kts 90°
2026-05-06 19:30 42.68270 24.00077 13793 ft 356 kts 90°
2026-05-06 19:30 42.68242 24.03488 14484 ft 360 kts 90°
2026-05-06 19:31 42.68210 24.06899 15142 ft 364 kts 91°
2026-05-06 19:31 42.68013 24.10323 15796 ft 369 kts 95°
2026-05-06 19:31 42.67397 24.17293 17075 ft 376 kts 96°
2026-05-06 19:32 42.67093 24.20792 17684 ft 380 kts 95°
2026-05-06 19:32 42.66793 24.24365 18276 ft 384 kts 95°
2026-05-06 19:32 42.66497 24.27969 18846 ft 388 kts 95°
2026-05-06 19:32 42.66198 24.31640 19401 ft 392 kts 94°
2026-05-06 19:33 42.65900 24.35342 19940 ft 397 kts 94°
2026-05-06 19:33 42.65601 24.39054 20472 ft 401 kts 94°
2026-05-06 19:33 42.65299 24.42804 20986 ft 405 kts 94°
2026-05-06 19:33 42.64993 24.46598 21505 ft 409 kts 94°
2026-05-06 19:34 42.64680 24.50463 22012 ft 414 kts 94°
2026-05-06 19:34 42.64362 24.54378 22535 ft 418 kts 94°
2026-05-06 19:34 42.64042 24.58291 22950 ft 422 kts 93°
2026-05-06 19:34 42.63719 24.62234 23074 ft 423 kts 93°
2026-05-06 19:35 42.63392 24.66234 23081 ft 422 kts 94°
2026-05-06 19:35 42.63069 24.70163 23087 ft 422 kts 94°
2026-05-06 19:35 42.62742 24.74110 23094 ft 422 kts 94°
2026-05-06 19:35 42.62416 24.78035 23093 ft 421 kts 94°
2026-05-06 19:36 42.62084 24.82004 23095 ft 421 kts 94°
2026-05-06 19:36 42.61756 24.85912 23097 ft 421 kts 94°
2026-05-06 19:36 42.61422 24.89891 23098 ft 421 kts 94°
2026-05-06 19:36 42.61090 24.93804 23099 ft 421 kts 94°
2026-05-06 19:37 42.60756 24.97727 23102 ft 421 kts 94°
2026-05-06 19:37 42.60418 25.01686 23103 ft 421 kts 94°
2026-05-06 19:37 42.60082 25.05604 23102 ft 421 kts 94°
2026-05-06 19:37 42.59854 25.08255 23097 ft 421 kts 94°
2026-05-06 19:38 42.59398 25.13559 23297 ft 428 kts 94°
2026-05-06 19:38 42.59054 25.17514 23994 ft 425 kts 94°
2026-05-06 19:38 42.58709 25.21452 24909 ft 418 kts 94°
2026-05-06 19:38 42.58368 25.25323 25810 ft 410 kts 93°
2026-05-06 19:39 42.58038 25.29047 26696 ft 401 kts 93°
2026-05-06 19:39 42.57709 25.32758 27599 ft 391 kts 92°
2026-05-06 19:39 42.57389 25.36355 28445 ft 382 kts 92°
2026-05-06 19:39 42.57077 25.39896 28857 ft 376 kts 92°
2026-05-06 19:40 42.56768 25.43412 28460 ft 381 kts 92°
2026-05-06 19:40 42.56455 25.47001 27585 ft 393 kts 92°
2026-05-06 19:40 42.56121 25.50798 26495 ft 408 kts 92°
2026-05-06 19:40 42.55778 25.54664 25333 ft 424 kts 93°
2026-05-06 19:41 42.55418 25.58662 24258 ft 434 kts 94°
2026-05-06 19:41 42.55052 25.62680 23321 ft 440 kts 94°
2026-05-06 19:41 42.54671 25.66824 22629 ft 438 kts 95°
2026-05-06 19:41 42.54293 25.70923 22065 ft 433 kts 95°
2026-05-06 19:42 42.53921 25.74921 21577 ft 427 kts 95°
2026-05-06 19:42 42.53552 25.78902 21124 ft 421 kts 95°
2026-05-06 19:42 42.53195 25.82750 20685 ft 414 kts 95°
2026-05-06 19:42 42.52837 25.86593 20245 ft 408 kts 95°
2026-05-06 19:43 42.52483 25.90390 19792 ft 403 kts 95°
2026-05-06 19:43 42.52132 25.94138 19349 ft 398 kts 95°
2026-05-06 19:43 42.51790 25.97790 18930 ft 394 kts 95°
2026-05-06 19:43 42.51446 26.01448 18512 ft 389 kts 95°
2026-05-06 19:44 42.51104 26.05062 18089 ft 384 kts 95°
2026-05-06 19:44 42.50764 26.08637 17682 ft 380 kts 94°
2026-05-06 19:44 42.50428 26.12157 17258 ft 376 kts 94°
2026-05-06 19:44 42.50092 26.15691 16820 ft 373 kts 95°
2026-05-06 19:45 42.49762 26.19141 16384 ft 370 kts 94°
2026-05-06 19:45 42.49432 26.22563 15943 ft 367 kts 94°
2026-05-06 19:45 42.49102 26.25988 15512 ft 364 kts 94°
2026-05-06 19:45 42.48774 26.29376 15097 ft 361 kts 94°
2026-05-06 19:46 42.48446 26.32759 14685 ft 358 kts 94°
2026-05-06 19:46 42.48124 26.36069 14267 ft 355 kts 94°
2026-05-06 19:46 42.47805 26.39339 13829 ft 353 kts 94°
2026-05-06 19:46 42.47483 26.42622 13394 ft 346 kts 94°
2026-05-06 19:47 42.47171 26.45791 12987 ft 333 kts 94°
2026-05-06 19:47 42.46873 26.48799 12599 ft 319 kts 94°
2026-05-06 19:47 42.46584 26.51724 12216 ft 313 kts 94°
2026-05-06 19:47 42.46296 26.54646 11825 ft 310 kts 94°
2026-05-06 19:48 42.46012 26.57522 11448 ft 308 kts 94°
2026-05-06 19:48 42.45730 26.60367 11074 ft 305 kts 94°
2026-05-06 19:48 42.45444 26.63236 10704 ft 303 kts 94°
2026-05-06 19:48 42.45165 26.66031 10335 ft 300 kts 94°
2026-05-06 19:49 42.44890 26.68768 10175 ft 290 kts 94°
2026-05-06 19:49 42.44624 26.71400 10106 ft 276 kts 94°
2026-05-06 19:49 42.44367 26.73945 10039 ft 263 kts 94°
2026-05-06 19:49 42.44125 26.76336 9987 ft 252 kts 93°
2026-05-06 19:50 42.43891 26.78677 9717 ft 252 kts 93°
2026-05-06 19:50 42.43658 26.81012 9439 ft 249 kts 94°
2026-05-06 19:50 42.43427 26.83314 9171 ft 247 kts 94°
2026-05-06 19:50 42.43195 26.85612 8896 ft 247 kts 94°
2026-05-06 19:51 42.42961 26.87912 8620 ft 246 kts 94°
2026-05-06 19:51 42.42730 26.90191 8353 ft 246 kts 94°
2026-05-06 19:51 42.42495 26.92488 8085 ft 245 kts 94°
2026-05-06 19:51 42.42264 26.94744 7821 ft 244 kts 95°
2026-05-06 19:52 42.42029 26.97021 7550 ft 243 kts 95°
2026-05-06 19:52 42.41799 26.99257 7278 ft 243 kts 95°
2026-05-06 19:52 42.41565 27.01527 7007 ft 243 kts 95°
2026-05-06 19:52 42.41332 27.03773 6740 ft 243 kts 95°
2026-05-06 19:53 42.41095 27.06048 6464 ft 242 kts 95°
2026-05-06 19:53 42.40862 27.08282 6201 ft 242 kts 95°
2026-05-06 19:53 42.40627 27.10551 5853 ft 244 kts 95°
2026-05-06 19:53 42.40333 27.12781 5510 ft 245 kts 107°
2026-05-06 19:54 42.39549 27.14841 5178 ft 247 kts 128°
2026-05-06 19:54 42.38406 27.16531 4871 ft 246 kts 134°
2026-05-06 19:54 42.37198 27.18158 4552 ft 245 kts 135°
2026-05-06 19:54 42.36109 27.19922 4208 ft 244 kts 114°
2026-05-06 19:55 42.35793 27.22125 3880 ft 241 kts 83°
2026-05-06 19:55 42.36320 27.24243 3548 ft 238 kts 54°
2026-05-06 19:55 42.37422 27.25863 3239 ft 235 kts 42°
2026-05-06 19:55 42.38619 27.27365 2899 ft 231 kts 43°
2026-05-06 19:56 42.39754 27.28799 2679 ft 217 kts 44°
2026-05-06 19:56 42.40812 27.30161 2684 ft 208 kts 44°
2026-05-06 19:56 42.41828 27.31484 2734 ft 193 kts 44°
2026-05-06 19:56 42.42760 27.32704 2679 ft 177 kts 44°
2026-05-06 19:57 42.43584 27.33784 2657 ft 160 kts 44°
2026-05-06 19:57 42.44383 27.34834 2656 ft 159 kts 44°
2026-05-06 19:57 42.45177 27.35880 2632 ft 158 kts 44°
2026-05-06 19:57 42.45962 27.36915 2602 ft 158 kts 44°
2026-05-06 19:58 42.46751 27.37957 2568 ft 157 kts 44°
2026-05-06 19:58 42.47539 27.38996 2460 ft 157 kts 44°
2026-05-06 19:58 42.48357 27.40037 2018 ft 165 kts 44°
2026-05-06 19:58 42.49148 27.41000 1988 ft 143 kts 44°
2026-05-06 19:59 42.49861 27.41914 1803 ft 141 kts 47°
2026-05-06 19:59 42.50514 27.42897 1417 ft 139 kts 49°
2026-05-06 19:59 42.51174 27.43828 1251 ft 135 kts 46°
2026-05-06 19:59 42.51842 27.44713 1216 ft 136 kts 43°
2026-05-06 20:00 42.52546 27.45563 1091 ft 136 kts 45°
2026-05-06 20:00 42.53226 27.46491 694 ft 136 kts 48°
2026-05-06 20:00 42.53866 27.47382 577 ft 132 kts 46°
2026-05-06 20:00 42.54532 27.48243 498 ft 132 kts 47°
2026-05-06 20:01 42.55204 27.49096 330 ft 132 kts 44°
2026-05-06 20:01 42.55856 27.49956 221 ft 129 kts 49°
2026-05-06 20:01 42.56494 27.50830 137 ft 128 kts 48°
2026-05-06 20:01 42.57058 27.51612 138 ft 92 kts 42°
2026-05-06 20:02 42.57310 27.51919 137 ft 9 kts 356°
2026-05-06 20:02 42.57314 27.51918 137 ft 0 kts
2026-05-06 20:02 42.57320 27.51919 137 ft 2 kts